Torna al catalogo

COSMOS 2251 DEB

AttivoLEO
NORAD 33933·DEBRIS·🇷🇺 Russia

Lanciato Jun 16, 1993 da Plesetsk Cosmodrome

Loading…

Prossimi Passaggi (prossime 24 ore)

TLE

AggiornatoSource: Space-Track

Epoca: Sep 14, 2026, 10:55 UTC

1 33933U 93036EN  26257.45511836  .00000414  00000-0  15331-3 0  9992
2 33933  74.0863 277.3786 0072424 217.2093 142.4029 14.33959432917365

Traccia COSMOS 2251 DEB in tempo reale con AllMySat

Download on the App Store